User: anonymous   Login
Location: Meriden
(44.0740°N, 93.3870°W)
Time: 14:55:13
(UTC-06:00)
Language:

AO-27 - Orbit

View from above orbital plane
View from above orbital plane
View from above satellite
View from above satellite

Ground track
Ground track

The orbit data is extracted from the following two-line orbital elements,

1 22825U 93061C   14354.90024764  .00000392  00000-0  16965-3 0  8473
2 22825 098.6872 300.1953 0009553 109.8239 296.8467 14.29805306107464
Epoch (UTC): 20 December 2014 21:36:21
Eccentricity: 0.0009553
inclination: 98.6872°
perigee height: 785 km
apogee height: 799 km
right ascension of ascending node: 300.1953°
argument of perigee: 109.8239°
revolutions per day: 14.29805306
mean anomaly at epoch: 296.8467°
orbit number at epoch: 10746

The dashed part of the orbit path shows where the satellite is in the earth's shadow,  

DLR